RH
5 5 5 6 5 7 8 9 10 10 12 12 10 8 6 4 3 3 2 2 1 1 1 2 2 3 7 10 12 17 20 19 21 22 21 21 19 17 15 13 12 12 12 11 11 11 10 10 10 10 10 10 10 9 9 9 9 9 9 9 9 9 9 9 9 8 7 7 8 9 11 12 13 16 20 29 39 46 51 55 56 56 55 56 57 54 51 46 44 41 39 33 34 35 34 42 41
7 7 7 7 7 9 9 11 9 9 12 10 10 7 5 3 2 3 2 2 1 1 1 1 2 2 5 6 8 13 17 16 17 18 16 17 15 11 10 9 8 8 8 8 7 7 7 8 8 8 8 8 9 8 9 9 9 9 9 9 9 9 9 9 10 9 9 8 7 7 8 9 11 12 14 16 23 33 42 51 55 55 52 51 51 51 49 48 50 44 42 39 38 41 42 53 54
8 8 9 8 9 10 11 10 8 20 22 9 9 7 4 3 2 3 1 2 1 1 2 1 2 2 3 3 5 8 12 12 12 14 12 13 12 9 9 8 6 6 5 6 5 5 6 6 6 7 7 8 8 8 8 8 8 9 8 9 9 9 9 9 10 9 9 9 9 8 7 6 7 9 11 13 14 19 26 38 48 54 55 53 49 52 53 53 52 46 47 45 44 45 42 51 57
9 9 9 9 10 11 10 8 8 22 23 9 9 7 4 4 2 3 1 2 2 2 2 2 2 2 2 2 3 4 7 8 7 9 10 10 11 10 9 8 7 6 5 5 4 4 5 5 5 5 5 6 7 7 7 8 8 8 8 8 8 9 9 9 9 9 9 9 9 8 8 7 6 6 7 10 12 13 15 20 30 42 53 58 57 58 58 57 52 49 52 50 50 48 43 42 47
9 10 10 10 11 11 8 7 8 12 12 9 10 7 6 4 3 2 2 2 2 2 2 2 2 2 2 2 2 3 3 4 4 4 6 7 8 8 7 7 6 5 5 4 4 4 4 4 4 3 4 4 4 4 5 5 5 6 6 6 7 7 7 7 7 8 8 8 8 8 8 8 7 7 6 7 8 11 13 13 16 22 33 46 56 61 61 61 56 55 55 54 54 49 43 38 40
10 10 10 11 11 10 7 6 8 9 9 9 9 8 8 5 3 3 2 2 2 2 2 2 2 2 3 3 3 3 3 3 3 3 3 4 4 6 5 5 5 4 4 4 4 4 4 3 3 3 3 3 3 3 3 3 3 3 3 4 4 4 4 4 4 5 5 5 6 6 6 7 7 7 7 6 6 7 10 12 14 14 17 24 37 50 58 63 62 61 59 58 58 52 46 41 39
12 11 11 12 12 9 6 5 7 8 8 9 9 9 9 7 5 4 3 2 2 2 2 3 2 3 3 3 3 3 3 3 3 3 3 3 3 4 4 4 4 4 4 4 4 4 4 4 4 3 3 3 3 3 3 3 2 2 2 2 2 2 2 2 2 2 3 3 3 4 4 5 5 5 6 6 6 6 7 9 11 14 15 15 20 30 42 53 60 63 63 62 61 58 54 50 42
13 12 11 12 12 8 5 6 7 7 8 9 10 10 9 8 6 4 4 3 2 2 2 2 2 2 3 2 3 3 3 3 3 3 3 3 3 4 3 4 4 4 4 4 4 4 4 4 4 3 3 3 3 3 3 3 2 2 2 2 2 2 2 2 2 2 2 2 2 2 2 3 3 3 4 4 5 6 7 7 9 11 14 16 16 18 25 34 46 55 62 64 64 62 60 58 52
13 11 11 12 11 8 5 6 7 7 8 9 10 10 9 8 6 5 4 3 2 2 2 2 2 2 3 2 3 3 3 3 3 2 2 3 3 3 3 4 4 4 4 4 5 4 4 3 3 2 2 2 2 2 2 2 2 2 2 2 2 1 2 2 1 2 2 2 2 1 2 2 2 2 2 3 3 4 5 7 8 10 12 15 17 17 18 21 29 40 51 60 65 65 64 63 58
12 11 11 12 10 7 5 6 7 8 8 8 9 10 10 8 7 5 3 3 2 2 2 2 2 2 2 3 3 3 3 3 3 3 3 3 3 3 3 4 4 5 5 5 4 3 3 2 2 2 2 2 1 2 1 2 1 1 2 1 1 1 1 1 1 2 1 1 2 1 1 1 2 2 2 2 2 2 3 4 6 8 11 13 15 17 18 18 20 26 37 49 58 64 65 66 64
12 11 11 11 10 7 6 6 8 8 8 8 9 10 10 9 7 5 4 3 2 2 2 2 2 2 3 2 3 3 3 3 3 3 3 3 3 4 4 4 5 6 5 3 3 2 2 2 2 2 2 2 2 2 1 1 2 1 2 2 1 1 1 1 1 1 1 1 1 1 1 1 1 1 1 1 2 2 2 2 3 5 8 11 14 16 18 19 18 19 24 34 45 56 64 65 67
12 11 12 12 12 10 8 7 9 9 9 9 9 10 10 10 8 5 4 3 2 2 2 2 2 2 2 2 3 3 3 3 3 3 3 3 4 4 4 5 6 5 3 2 2 2 2 2 2 2 2 2 2 2 2 2 2 2 1 2 1 2 2 1 2 1 1 1 1 1 1 1 1 1 1 1 1 1 2 2 2 2 4 7 12 15 18 20 20 19 18 22 30 40 55 64 66
13 12 13 13 13 12 9 8 9 10 10 9 10 11 11 10 8 6 5 3 2 2 2 2 2 2 2 2 3 3 3 3 3 3 3 4 4 5 5 6 5 3 2 3 3 2 2 2 2 3 3 2 3 2 3 2 2 2 2 2 2 2 2 2 2 2 2 1 1 1 1 1 1 1 1 1 1 1 2 2 2 2 2 2 5 10 15 21 22 21 19 18 21 27 39 54 63
16 15 14 14 14 13 10 9 9 10 10 10 11 11 12 11 9 8 5 3 2 2 2 2 2 2 2 2 2 3 3 3 3 3 4 4 4 5 6 6 4 2 2 3 3 2 2 3 3 3 3 3 3 3 3 3 3 4 3 3 3 3 3 3 2 2 2 2 2 2 1 1 1 1 1 1 1 2 2 2 3 3 3 3 2 4 7 14 21 24 23 20 19 21 26 39 54
19 18 16 16 15 14 11 10 10 10 10 11 11 12 12 12 10 9 6 4 4 3 2 2 2 2 2 2 2 3 3 3 3 3 4 4 4 5 7 6 2 2 3 3 2 3 3 3 3 3 3 3 3 3 3 4 4 4 4 4 4 4 4 4 4 4 3 3 3 2 2 2 1 1 1 1 1 2 2 2 3 3 3 3 3 3 3 5 11 19 24 24 21 20 21 26 38
21 21 20 18 16 15 14 12 12 11 11 11 12 12 13 13 12 10 8 6 4 3 2 2 2 2 2 2 2 3 3 3 2 2 3 4 4 5 7 5 2 2 2 2 3 3 3 3 3 3 3 4 4 4 4 4 4 4 4 4 4 4 5 5 5 5 4 4 4 4 3 3 2 2 2 2 2 2 2 2 3 4 4 4 4 4 4 4 6 11 18 23 25 22 21 21 26
22 22 22 20 19 18 17 15 14 14 13 13 12 13 14 14 14 12 10 8 5 3 3 2 2 2 2 2 2 3 3 3 2 2 3 3 4 5 6 5 2 2 2 2 3 3 3 3 3 4 4 5 5 5 5 5 4 4 4 4 5 4 4 4 5 5 5 5 4 5 4 4 3 3 3 2 2 2 2 3 3 5 5 5 5 5 4 5 5 8 15 21 25 25 24 22 22
24 23 22 22 22 21 21 19 17 16 16 16 15 15 15 14 15 14 12 10 6 4 3 2 2 2 2 2 2 3 3 3 2 2 2 3 3 4 5 5 3 2 2 2 3 3 3 3 3 4 5 5 6 6 6 6 5 5 5 5 5 5 5 4 4 4 4 4 4 5 4 5 5 4 4 4 3 3 3 3 3 4 5 6 5 6 5 5 5 7 13 19 24 27 26 25 23
27 26 25 24 24 24 23 23 21 19 18 19 19 18 16 15 16 16 15 13 9 6 3 2 2 2 2 2 2 2 3 3 2 2 2 2 2 3 4 5 3 2 2 3 3 3 3 3 4 4 5 6 6 6 6 7 6 6 6 5 5 5 5 5 5 5 5 5 4 5 5 5 5 5 5 5 5 4 4 3 3 4 4 6 5 5 6 5 5 5 8 15 23 27 28 28 26
30 28 27 26 27 27 26 25 24 22 20 21 22 22 20 17 16 18 18 16 13 8 4 3 2 2 2 2 2 2 3 3 2 2 2 2 2 2 3 4 3 2 2 2 3 3 3 3 4 4 5 6 6 6 6 6 6 6 6 6 6 6 6 6 6 6 5 5 5 5 5 5 5 5 6 6 6 6 6 5 4 4 4 5 6 6 6 6 6 6 5 8 17 26 29 31 31
33 31 29 28 28 29 29 28 27 25 24 23 24 25 24 22 19 20 21 20 19 13 8 6 4 3 3 2 2 2 3 3 2 2 2 1 2 1 2 3 2 2 2 2 3 3 3 3 4 5 6 6 6 6 6 6 6 5 6 6 6 6 5 6 6 6 6 6 6 5 5 5 5 5 6 6 6 6 6 6 6 5 4 4 5 6 7 7 6 7 6 6 9 18 27 32 33
32 32 31 30 29 29 30 29 28 28 28 27 25 26 26 26 25 23 24 24 24 21 16 12 8 5 4 3 2 2 2 3 3 2 2 1 2 2 2 2 2 2 2 2 3 3 3 3 4 5 6 6 5 6 6 6 6 6 6 6 6 6 5 6 6 6 6 7 6 6 6 6 5 5 5 5 5 6 6 6 6 6 6 5 4 5 6 8 8 8 7 7 6 9 18 28 33
33 33 32 31 29 29 29 28 28 28 29 30 28 26 26 27 29 28 27 27 28 28 25 20 15 9 5 3 2 2 2 2 3 3 2 1 1 2 2 2 2 2 2 2 3 3 3 4 4 5 5 5 5 6 6 7 7 7 7 6 6 6 6 6 6 6 6 7 7 7 7 7 7 6 6 6 6 7 7 7 7 6 6 6 5 5 4 5 9 10 8 7 7 6 9 17 28
33 32 32 31 30 29 28 28 29 29 29 29 27 25 24 25 28 29 30 29 29 32 31 26 22 16 10 6 3 2 2 2 3 3 2 2 2 2 2 2 2 2 2 2 3 3 3 3 4 4 4 4 5 6 6 7 7 7 7 7 6 6 6 6 6 6 6 6 7 7 7 7 7 7 7 7 7 7 7 8 8 8 7 7 6 6 5 4 6 10 11 9 7 7 7 8 16
29 30 31 31 31 30 28 28 29 30 29 26 25 24 22 23 25 28 30 29 31 35 35 31 25 21 16 12 7 3 2 2 3 3 2 2 2 2 2 2 2 2 2 2 3 3 3 3 3 4 4 4 5 5 6 6 6 7 7 7 7 6 6 7 6 5 5 5 6 6 6 7 6 7 7 7 7 7 7 8 8 8 9 9 8 7 6 5 4 6 9 12 10 8 8 7 8
27 28 29 29 30 31 28 28 28 30 31 25 24 24 22 22 22 28 30 28 33 35 35 35 29 22 18 16 12 6 3 2 2 3 3 2 2 2 2 2 2 2 2 2 3 3 3 3 3 4 4 4 5 5 5 5 5 6 6 7 7 7 6 6 6 5 5 5 5 6 5 6 6 6 7 7 7 7 7 8 8 8 9 9 9 9 7 7 6 5 5 8 12 11 8 8 6
29 28 28 27 27 30 28 26 26 27 29 27 25 26 22 19 21 28 29 27 32 33 31 35 33 25 18 17 15 10 6 3 2 3 3 2 1 2 2 2 2 2 2 2 2 2 3 3 3 4 4 4 4 4 4 4 5 5 6 7 7 7 7 6 7 6 5 5 5 5 5 6 6 6 7 7 7 7 8 7 8 8 8 9 9 9 9 8 7 6 5 4 8 11 11 9 8
31 29 28 27 26 29 29 26 25 25 27 25 23 26 23 16 18 27 28 26 28 30 30 31 32 29 20 16 15 12 9 6 3 3 3 3 2 2 2 2 2 2 2 2 2 2 2 3 3 3 4 4 5 5 5 5 5 6 6 6 7 7 8 7 7 7 6 6 6 5 5 6 6 6 6 7 7 7 8 8 8 8 8 9 9 9 9 9 9 7 6 5 4 6 9 11 10
30 30 30 30 27 27 27 25 25 24 25 23 19 23 26 19 18 24 25 24 24 25 28 29 28 27 22 18 16 13 11 8 5 3 3 3 2 2 2 2 2 2 2 2 2 2 2 3 3 3 3 4 5 5 5 6 6 6 6 7 7 8 8 8 8 8 7 7 7 6 5 5 5 5 6 6 7 7 8 8 8 9 9 9 9 9 9 9 10 9 8 7 6 4 5 7 9
29 30 31 32 29 25 23 24 25 23 22 21 16 19 26 21 17 21 23 21 22 23 25 27 27 25 20 17 16 14 12 10 7 5 3 3 3 2 2 2 2 2 2 2 2 2 2 2 3 3 3 3 4 5 5 6 7 7 8 8 8 9 9 9 9 9 9 8 8 8 7 6 5 5 5 6 6 7 7 8 8 9 9 9 9 10 10 10 10 10 10 8 7 6 5 5 5
29 27 27 27 27 26 26 27 28 25 21 20 15 16 26 24 15 17 22 21 20 21 22 24 26 24 18 14 15 16 14 11 9 7 5 4 3 2 2 2 2 2 2 2 2 2 2 2 3 3 3 3 4 5 5 6 7 8 9 9 10 11 11 10 10 10 10 10 9 8 8 7 6 5 5 5 6 6 7 7 7 8 9 10 10 10 10 10 10 10 11 10 9 8 7 6 5
29 25 24 24 24 26 28 28 31 29 22 20 17 14 24 28 16 10 16 20 20 20 19 20 23 23 18 13 13 15 15 13 10 9 7 5 4 3 2 2 2 2 1 2 2 2 2 2 2 3 3 3 4 4 5 5 6 7 9 10 10 12 12 11 10 10 11 11 11 10 9 8 8 6 5 5 6 6 7 7 7 8 9 9 9 10 10 10 10 10 10 10 11 10 9 8 7
35 30 27 25 24 25 26 26 31 33 27 25 20 15 21 27 22 12 10 15 20 20 17 16 20 24 21 14 12 13 14 14 11 10 9 7 5 4 3 3 2 2 2 2 2 2 2 2 2 3 3 3 4 4 4 5 5 6 8 9 10 11 11 11 11 11 11 11 12 11 10 9 8 8 6 5 5 6 7 7 8 8 8 9 9 10 11 11 10 10 10 10 12 13 11 10 9
39 35 31 28 26 24 24 23 27 31 30 28 24 18 20 24 22 16 11 11 15 20 17 13 16 22 23 18 13 13 13 13 12 10 10 8 7 5 4 3 3 3 3 2 3 3 3 3 2 2 3 3 3 4 4 4 5 5 7 8 9 10 10 11 11 11 12 12 13 13 12 11 9 9 8 7 6 6 7 7 8 9 8 8 9 10 10 12 12 11 11 11 12 13 13 13 12
41 39 34 30 27 25 24 22 23 28 29 29 26 20 21 23 19 14 12 11 12 17 17 13 12 16 20 19 15 13 12 12 12 10 9 10 8 7 5 4 4 4 4 3 3 3 3 3 3 2 3 3 3 3 4 4 4 4 5 6 8 9 10 10 10 11 12 12 13 13 13 13 11 10 9 9 7 6 6 7 8 8 9 9 9 10 11 12 13 12 11 11 11 12 14 14 14
42 41 37 32 28 26 26 23 21 25 27 29 27 22 21 21 16 12 11 11 12 15 16 14 12 12 15 17 16 15 13 12 12 10 9 11 10 9 7 6 5 5 5 5 4 3 3 3 3 3 2 3 3 3 3 4 4 4 4 5 6 8 9 9 10 10 11 12 12 13 13 14 13 13 12 11 10 8 7 7 8 8 9 10 10 11 12 13 14 13 13 12 11 11 12 14 15
42 43 39 33 29 26 26 25 23 23 24 28 28 23 22 20 14 12 11 11 12 14 15 14 14 13 13 14 15 14 13 12 11 10 10 11 11 11 10 8 7 7 6 6 6 5 5 4 3 3 3 3 3 3 3 3 4 4 4 5 5 7 8 9 9 10 10 11 11 12 13 13 14 14 14 14 13 12 10 8 8 9 9 10 11 12 12 13 15 15 14 13 12 11 10 11 13
44 43 38 34 31 27 26 27 26 25 23 26 28 24 23 21 14 12 11 11 12 13 14 14 14 14 14 14 14 13 12 12 11 11 11 11 12 13 13 11 9 8 8 7 7 7 6 6 5 5 4 3 3 3 3 3 4 5 5 5 5 6 8 8 9 9 10 10 11 11 11 12 13 14 15 16 16 15 14 13 11 10 10 10 11 12 13 14 15 17 16 15 14 12 11 10 10
44 42 37 35 33 28 25 26 28 28 25 24 26 24 23 21 15 13 11 11 12 12 13 14 14 15 15 15 14 13 12 12 12 12 11 12 13 13 14 13 11 9 9 9 9 8 7 7 7 7 6 5 5 4 4 4 4 5 5 5 6 6 7 7 8 9 10 10 11 11 11 12 12 14 15 17 18 18 18 18 17 15 12 11 12 12 13 15 16 17 19 18 16 14 12 11 10
44 42 38 35 33 28 24 24 24 26 26 25 24 23 22 21 16 14 12 11 12 13 13 14 14 15 16 16 15 15 14 13 14 13 13 13 13 14 15 15 14 11 10 10 10 9 8 8 8 8 7 7 7 7 6 6 6 6 6 6 6 6 7 7 8 8 9 10 10 11 11 12 12 13 15 16 18 18 19 19 20 20 19 16 15 14 14 15 16 18 20 21 20 17 14 11 10
42 41 38 36 32 27 25 23 21 22 24 27 25 21 21 22 17 15 14 13 13 12 13 13 13 14 15 18 18 16 16 15 15 14 13 14 14 15 15 15 16 14 12 11 11 10 9 9 9 9 8 9 9 9 9 9 9 9 9 9 8 8 8 8 8 9 9 10 10 12 12 12 14 14 14 15 16 17 18 19 20 21 23 22 21 18 16 16 17 19 20 22 23 21 17 13 11
40 38 37 36 30 25 25 22 19 18 19 25 26 18 19 23 18 15 15 15 14 13 13 14 13 14 16 19 19 18 17 16 15 15 14 13 14 15 15 16 16 16 15 14 13 13 13 13 12 10 10 10 11 10 11 11 12 13 12 12 11 10 10 10 10 10 10 10 11 12 13 14 15 16 16 15 15 17 17 19 21 22 22 24 25 24 21 18 18 19 21 23 25 24 22 17 13
39 38 38 35 29 24 22 20 17 16 15 21 28 19 17 24 22 17 17 16 16 14 13 14 14 14 18 19 17 17 19 17 16 16 15 13 12 13 15 16 16 17 18 17 17 17 17 16 14 13 12 12 13 13 14 14 14 14 13 13 14 13 12 12 11 11 11 11 11 12 14 15 17 17 18 17 16 17 18 19 21 22 22 23 25 27 25 22 20 20 22 24 26 27 25 22 18
37 38 38 34 29 25 21 18 15 15 13 18 28 23 17 23 24 19 18 18 17 16 14 15 15 14 17 18 17 18 19 18 18 16 16 15 13 14 15 16 17 18 19 20 21 21 19 18 16 16 16 16 16 16 17 17 15 15 14 15 15 14 13 12 12 12 12 12 12 14 15 16 18 18 19 19 19 19 19 21 22 23 23 23 24 26 28 27 23 22 24 26 28 29 29 26 22
39 38 36 31 29 26 21 18 16 14 12 14 22 23 18 23 27 21 19 20 18 17 17 16 16 15 15 16 16 18 18 18 19 18 17 17 16 15 16 18 19 19 20 21 22 23 22 22 21 20 20 19 18 18 18 19 18 17 17 16 16 15 14 13 12 12 13 14 15 17 17 18 19 20 21 21 21 22 24 25 25 25 24 24 25 26 28 30 28 25 26 28 31 32 31 29 26
41 38 36 31 29 27 21 18 18 15 13 13 17 20 19 21 27 24 20 22 21 19 19 17 18 17 14 14 15 17 18 18 19 20 20 19 18 18 18 19 20 20 22 22 22 23 23 24 25 24 22 21 20 20 20 21 21 21 19 18 17 17 17 16 17 17 18 19 20 21 21 21 22 23 24 24 25 28 31 31 31 28 25 24 25 27 29 32 32 30 29 31 34 34 33 31 29
43 36 34 33 30 28 22 19 19 16 14 14 14 17 17 16 26 29 22 22 22 20 21 19 19 19 16 15 15 17 19 19 20 20 21 21 19 20 20 20 21 22 22 23 22 21 20 21 23 25 25 23 23 22 22 24 25 24 22 21 21 22 22 21 21 22 22 23 24 25 23 23 24 25 26 27 29 32 34 33 33 31 28 25 26 28 32 35 36 35 34 34 35 36 33 30 29
51 41 36 35 31 26 22 20 19 17 15 14 11 13 14 11 21 32 28 25 22 20 21 21 20 20 17 15 14 17 21 21 21 21 21 22 21 21 22 22 22 23 23 23 22 21 20 19 21 24 26 26 26 25 26 29 28 26 25 25 27 27 27 25 23 23 23 23 23 23 22 21 21 23 26 27 29 31 32 32 34 33 30 28 28 30 32 35 38 39 39 37 37 36 32 27 26
62 54 47 39 34 28 22 20 19 17 15 13 11 12 12 10 18 30 32 28 25 23 23 22 22 22 18 16 14 15 18 20 22 22 22 23 23 22 23 23 23 23 23 23 24 23 22 21 21 23 26 29 31 31 31 32 30 29 31 33 34 32 29 27 24 23 22 21 21 21 20 20 20 21 23 24 26 29 29 30 32 33 32 31 32 32 33 35 38 40 41 40 39 36 30 26 25
70 69 60 44 39 36 27 23 21 18 17 15 13 13 12 12 17 29 34 29 27 26 25 24 24 23 20 16 14 15 17 20 22 24 23 23 23 22 22 23 23 22 23 24 25 24 24 25 24 25 26 30 35 35 35 35 34 35 38 40 38 33 29 26 24 23 22 22 21 22 21 21 20 21 22 23 24 26 28 28 30 32 33 33 35 35 35 37 39 40 41 41 40 36 30 27 25
67 72 65 47 44 43 33 28 24 20 19 17 16 14 13 13 17 30 38 33 29 26 24 26 26 24 22 17 14 14 16 21 24 24 24 23 22 21 20 21 21 22 22 23 25 26 27 28 28 27 27 29 32 35 38 40 39 40 43 42 36 30 26 24 23 23 23 22 21 21 22 21 22 23 23 24 25 27 28 28 29 32 33 35 37 37 38 40 41 42 41 40 39 35 31 28 27
57 62 61 50 48 48 38 31 27 23 20 17 17 16 14 14 15 30 43 40 34 28 23 26 28 25 22 17 15 15 16 20 23 24 25 24 22 21 19 20 20 22 23 24 26 28 29 30 29 29 29 30 31 34 38 42 42 43 44 40 33 28 24 23 22 22 22 22 21 21 23 24 25 26 26 26 27 28 29 29 30 32 34 36 38 40 42 42 43 43 42 40 38 35 33 32 31
52 52 54 54 54 50 41 33 27 26 22 17 18 16 13 13 11 24 46 47 39 33 27 27 29 25 22 19 17 17 17 19 20 21 22 23 23 23 23 25 25 25 26 26 26 27 28 29 29 30 32 32 33 34 38 41 42 42 41 36 31 27 25 23 22 23 23 23 24 25 26 28 29 29 28 28 29 30 31 32 33 34 35 38 41 43 44 44 45 45 43 41 40 39 37 37 37
55 53 55 59 58 50 44 38 31 29 25 19 20 18 13 12 8 16 41 50 41 35 32 29 28 24 20 19 19 19 19 18 18 17 18 20 21 23 25 28 29 27 26 25 23 22 23 25 28 31 33 35 36 37 39 41 40 39 35 33 30 27 25 25 24 25 26 27 28 29 30 32 32 31 31 31 32 33 34 35 36 37 39 42 45 46 45 46 48 48 46 45 46 45 44 44 43
63 62 60 58 57 53 47 43 37 33 28 22 21 19 13 12 10 14 37 50 42 36 36 32 28 23 19 19 21 23 21 19 18 16 16 17 18 19 21 22 23 22 21 21 20 19 20 23 28 33 35 37 39 39 39 38 36 34 32 31 29 27 26 27 27 27 28 31 32 33 34 35 34 33 33 35 36 37 38 39 40 42 45 48 49 49 48 50 52 52 52 52 50 48 47 47 46
68 66 59 54 57 59 52 45 40 36 33 29 25 20 14 13 13 15 34 48 43 38 38 33 28 24 22 22 24 25 23 21 19 17 17 17 17 16 17 18 19 19 19 20 19 19 21 23 30 37 40 41 42 40 38 37 34 32 32 31 29 28 29 29 29 30 32 34 36 37 37 38 37 36 37 38 40 41 42 44 46 49 51 53 52 52 52 54 56 56 56 55 52 49 48 47 47
69 67 62 57 58 63 59 48 42 40 39 39 34 22 13 15 13 15 33 46 43 41 40 35 31 27 24 24 25 25 24 25 23 20 18 17 17 17 17 17 18 17 18 20 21 22 23 25 33 42 45 44 43 41 38 36 34 32 32 31 30 31 32 32 32 34 36 38 39 40 40 39 39 39 40 41 43 46 48 50 52 55 56 56 56 57 59 60 61 62 61 57 54 52 50 49 50
70 70 66 63 62 65 62 49 42 45 46 45 42 27 14 16 15 18 36 46 44 45 42 37 35 31 25 22 23 24 25 28 29 25 21 19 19 20 19 19 20 20 21 23 24 24 24 28 38 45 48 47 44 42 39 36 35 33 32 32 33 35 35 35 37 39 40 42 43 42 41 41 40 40 43 46 49 52 54 55 57 59 59 60 62 64 66 67 68 67 63 60 57 55 54 55 56
Wind_Speed
10 10 11 12 13 13 14 16 16 17 17 17 17 17 17 17 17 18 19 19 19 19 19 19 19 18 17 17 18 18 19 20 20 21 21 21 21 22 21 21 21 21 21 22 23 24 24 25 25 26 26 26 27 27 27 27 27 27 27 27 26 26 26 26 26 26 25 25 25 25 26 26 27 28 28 29 30 30 30 29 29 29 29 29 29 29 29 30 30 30 30 31 32 32 32 32 32
10 11 11 12 12 13 15 16 18 19 18 16 16 17 16 16 17 18 19 18 18 19 20 20 20 19 18 18 18 17 17 19 19 19 20 21 19 19 20 20 20 20 21 21 22 23 23 24 25 26 26 27 27 27 28 28 29 29 29 29 29 29 29 29 29 29 28 28 27 27 27 27 27 27 28 29 29 30 31 30 30 31 31 31 31 30 30 30 30 30 30 31 33 32 32 32 32
10 11 11 11 12 14 15 17 19 18 17 18 16 16 16 15 17 17 17 17 19 20 20 21 21 21 19 18 18 17 17 19 19 18 18 20 20 19 20 21 21 21 21 22 22 23 24 25 25 26 27 27 28 28 29 30 30 30 31 31 32 32 32 32 32 31 30 30 30 30 29 29 28 28 28 28 29 30 30 31 32 32 32 32 32 31 32 31 31 31 30 32 34 33 33 32 32
10 11 11 11 12 13 14 16 18 14 15 18 17 16 15 15 16 16 16 18 19 19 20 21 21 21 22 21 21 19 17 18 19 19 19 20 21 21 21 22 22 22 23 23 23 24 24 25 26 27 27 28 28 29 30 30 31 31 32 33 33 34 34 34 34 33 33 32 32 32 31 31 31 30 29 29 29 29 30 31 32 32 33 33 33 32 33 32 32 31 32 32 33 33 33 32 33
10 10 10 11 12 13 14 16 17 15 15 17 16 16 15 16 16 15 16 18 18 19 20 21 21 21 22 22 22 22 19 18 19 20 20 21 22 23 23 22 22 22 23 23 24 24 25 26 26 27 27 28 28 29 29 30 30 31 31 32 33 34 34 35 35 35 35 34 34 33 33 33 33 32 32 31 30 30 30 30 31 32 33 33 34 34 34 33 32 32 33 33 32 32 32 31 33
10 10 11 12 13 13 13 15 15 16 16 17 17 17 17 17 16 15 16 17 17 18 18 19 20 20 21 21 21 22 21 20 19 20 20 21 22 22 22 22 22 22 22 23 23 24 25 26 27 27 28 29 29 29 29 30 30 30 31 31 32 32 33 34 34 35 36 36 36 35 35 34 34 34 34 33 33 32 32 31 31 32 32 33 34 35 35 34 33 32 33 33 33 33 32 31 32
10 10 11 12 13 12 12 14 15 15 16 17 17 17 17 17 16 16 16 16 16 17 17 18 20 19 20 20 20 20 20 20 19 19 20 20 21 22 22 21 21 21 22 23 23 24 25 27 28 29 29 30 30 30 30 30 30 30 30 31 31 31 32 32 33 34 35 35 36 37 37 37 36 36 36 35 35 34 34 33 33 33 33 33 33 34 35 35 35 34 34 33 34 33 32 32 34
12 13 14 13 13 13 12 12 14 15 16 16 16 16 17 17 16 16 16 16 16 16 16 17 19 18 18 18 18 19 18 18 18 19 20 20 21 21 21 21 21 21 22 23 24 25 26 27 27 28 28 27 27 27 28 28 28 29 29 29 30 30 30 31 31 32 33 33 34 36 37 38 38 38 38 38 37 37 36 35 35 34 34 34 34 35 35 35 35 35 35 35 35 34 33 33 33
13 15 14 14 14 13 13 12 13 14 15 17 16 16 17 17 16 15 15 15 15 16 16 17 18 17 17 17 17 18 18 18 18 19 20 21 22 21 21 20 20 21 22 23 23 24 24 23 23 22 22 21 22 22 22 23 24 24 25 25 26 27 27 28 29 30 31 31 32 33 34 36 37 38 39 39 39 39 38 38 37 36 36 36 35 36 36 36 35 35 35 36 36 35 34 34 33
15 16 15 15 15 14 14 13 13 14 15 17 17 17 16 16 15 14 14 15 15 15 16 16 17 17 17 18 17 18 18 18 18 19 21 22 22 22 21 21 21 20 20 20 20 19 18 18 17 17 17 17 17 18 18 18 19 19 20 20 21 22 23 24 25 27 28 29 30 31 32 33 34 35 36 38 39 40 40 40 40 39 38 37 37 37 37 37 37 36 36 36 36 36 36 35 34
15 16 16 17 17 16 15 14 13 14 15 16 17 17 17 16 15 14 14 14 14 15 15 16 17 17 17 18 19 19 19 18 19 20 22 23 23 23 23 21 19 17 17 17 16 15 15 15 16 16 17 17 17 18 18 18 18 18 18 18 18 19 19 20 21 22 24 26 27 29 30 31 32 33 34 35 37 38 40 41 41 41 41 40 39 38 38 38 38 38 37 37 37 36 36 36 36
15 16 16 16 16 16 16 14 14 13 14 16 16 17 17 16 16 14 13 14 14 15 15 16 16 17 17 18 19 20 20 20 20 21 22 23 24 23 22 19 15 14 14 14 14 14 15 16 17 18 19 20 20 21 21 22 22 22 21 20 20 20 19 19 19 19 20 21 22 25 27 29 30 31 32 33 34 35 37 39 40 41 42 42 41 40 39 39 39 39 39 38 38 37 37 37 37
16 17 17 16 15 15 15 15 14 14 14 16 16 17 17 17 16 15 14 14 14 15 15 16 16 17 17 18 19 20 20 20 20 22 22 23 23 22 19 15 12 12 13 13 14 15 15 16 18 20 21 23 24 25 25 26 27 27 26 25 24 23 22 22 22 22 22 21 21 20 21 24 26 29 31 32 33 34 35 36 37 39 41 42 42 42 41 40 39 39 39 39 39 39 38 38 37
17 17 17 16 15 15 15 15 14 14 15 16 15 16 16 17 17 16 15 14 14 15 15 15 16 17 18 18 19 20 20 20 20 20 20 21 20 19 15 11 10 11 12 14 14 15 16 17 20 22 23 24 25 26 27 28 29 30 30 30 29 28 27 27 26 26 26 25 25 24 21 19 19 23 26 29 31 32 33 33 35 36 38 40 41 43 43 43 41 40 40 40 40 40 39 39 38
16 16 17 17 16 15 15 15 15 15 15 16 16 16 16 17 17 17 17 16 16 16 15 15 16 17 17 18 19 20 20 20 20 19 18 18 18 16 12 9 8 10 13 14 14 15 17 19 21 22 23 23 24 24 25 26 28 29 30 30 31 31 31 31 31 30 30 30 29 29 28 25 21 18 18 21 25 28 30 31 31 33 35 37 39 41 43 44 44 43 41 40 40 40 40 39 39
16 16 16 17 17 17 16 16 16 16 16 16 17 16 16 17 17 17 18 17 17 17 16 16 16 17 17 17 18 19 20 20 20 19 17 17 16 13 10 7 7 9 13 13 13 16 17 19 20 21 22 22 23 23 24 24 25 26 28 28 29 29 30 31 31 32 32 33 33 33 33 32 30 27 23 20 18 20 23 26 28 29 31 33 36 38 40 42 43 44 43 41 41 40 40 40 40
16 16 16 17 18 18 18 17 17 18 17 16 17 17 17 17 17 17 18 19 18 18 18 17 17 18 17 18 18 19 20 20 20 19 18 17 15 12 8 7 5 7 10 10 12 15 16 17 18 20 21 22 22 23 23 23 23 24 25 27 27 28 29 29 30 31 32 33 34 34 35 35 35 34 32 30 27 22 19 20 23 25 27 29 32 34 36 39 41 42 42 42 41 40 40 40 40
16 16 16 17 17 18 19 19 18 19 18 17 17 17 17 17 18 18 18 19 19 19 20 19 18 18 18 18 18 19 20 20 20 19 19 18 15 12 8 7 5 5 7 9 11 13 14 15 17 18 19 20 21 21 22 22 22 22 23 25 26 27 27 28 29 30 31 32 32 33 34 35 36 36 36 35 34 32 29 24 21 21 23 25 28 30 33 35 37 39 41 41 41 40 39 39 39
15 16 17 17 17 17 18 19 19 19 19 19 18 17 17 17 18 18 18 19 20 20 21 20 19 19 19 19 18 18 19 19 20 19 20 19 17 13 9 6 5 4 5 7 9 11 13 14 15 16 16 18 19 20 21 21 21 21 21 22 24 25 26 27 28 28 29 30 31 32 33 34 35 36 37 37 37 36 35 33 28 24 21 22 24 26 28 31 34 36 38 40 40 39 38 38 38
16 16 17 17 17 17 17 18 19 19 19 20 19 18 17 17 17 18 19 19 20 20 21 21 21 21 21 20 19 18 18 18 19 20 20 20 18 15 10 7 5 2 4 6 8 10 12 13 14 14 15 15 16 18 19 20 20 20 20 20 21 23 25 26 27 27 28 29 30 30 31 32 33 34 35 36 36 36 36 36 34 31 27 23 22 23 24 27 30 33 35 38 40 40 38 37 37
16 17 17 17 17 17 17 17 18 19 19 19 20 20 19 18 17 18 19 20 20 19 20 22 22 23 22 22 20 18 18 18 18 19 20 19 18 16 12 7 4 2 5 6 7 9 10 11 12 13 13 14 14 16 17 18 18 19 19 20 20 22 23 24 26 27 27 28 29 29 30 30 31 32 33 34 35 35 36 36 36 35 33 30 26 23 22 23 26 29 32 34 37 39 39 38 37
15 16 17 18 18 17 17 16 17 18 19 19 20 21 22 20 19 18 19 20 21 19 20 21 22 23 23 23 22 20 18 17 18 19 19 17 16 15 11 7 3 4 5 6 7 8 9 10 11 11 12 13 13 15 16 16 17 18 19 20 20 21 22 23 25 26 26 27 28 28 29 29 30 30 31 32 33 34 34 35 35 35 35 35 33 29 25 23 22 24 28 31 33 36 37 38 38
16 16 17 18 18 18 17 16 16 17 18 18 18 20 23 22 21 21 20 22 22 20 19 20 21 22 23 23 23 21 19 17 17 18 17 14 14 13 9 5 5 6 6 7 8 8 8 9 10 11 12 13 14 15 15 16 16 17 18 20 21 21 21 23 24 24 24 25 26 27 27 28 28 29 29 29 30 31 32 33 34 35 35 35 36 34 32 28 24 21 23 26 30 32 34 37 38
16 16 17 18 18 18 17 16 16 16 18 18 17 17 21 22 22 23 22 24 24 22 20 19 19 21 22 23 23 22 20 17 16 17 16 12 11 10 8 6 6 7 7 7 7 7 8 9 10 11 12 14 14 14 15 16 17 17 18 20 21 21 21 22 23 23 23 23 24 25 26 26 27 27 28 28 29 29 30 31 31 33 34 35 35 35 34 33 29 24 21 21 24 27 31 34 36
17 17 18 18 19 19 18 17 17 17 18 19 18 17 19 21 22 23 24 26 25 23 21 19 18 18 20 21 22 23 22 19 16 16 15 10 8 8 6 6 6 6 6 6 6 6 8 9 10 11 13 14 14 13 14 16 17 18 18 18 19 20 20 20 21 23 23 23 24 24 24 25 25 26 26 27 28 28 29 30 30 31 32 33 34 34 34 34 33 29 25 22 20 22 27 31 33
19 19 19 19 19 19 19 18 18 17 18 20 19 18 20 21 20 23 27 26 25 25 23 21 19 17 18 18 20 21 22 20 16 15 15 10 6 6 5 4 5 5 5 4 5 6 8 9 9 11 12 12 12 12 13 15 17 17 18 17 18 19 19 19 20 21 22 23 24 24 24 24 24 25 25 25 26 27 28 29 30 30 31 31 32 32 32 33 33 32 30 26 21 20 22 25 29
22 20 19 20 20 21 20 19 19 19 17 19 19 18 20 23 20 22 27 26 25 27 25 23 21 18 16 16 17 18 21 22 18 15 14 11 6 3 3 2 3 3 2 2 4 6 6 7 8 9 10 10 11 11 12 13 15 16 16 16 17 17 18 19 19 19 20 21 22 23 24 24 24 25 25 25 25 26 26 28 29 30 30 30 30 30 31 31 31 31 31 29 26 22 20 20 24
25 23 21 21 20 22 23 21 22 21 20 19 18 16 19 25 22 21 27 26 25 27 27 24 22 21 18 15 16 16 18 21 20 17 14 13 9 4 2 0 2 1 1 4 6 7 6 6 7 8 8 9 9 10 12 13 13 14 14 14 15 16 17 17 18 18 18 18 19 21 22 23 23 24 24 24 25 25 25 26 27 28 29 29 29 29 29 29 29 29 30 30 29 26 23 20 20
27 27 26 24 20 19 21 22 22 21 21 21 19 15 16 24 25 21 26 28 25 25 26 25 23 23 21 17 16 15 16 19 21 19 15 13 12 8 4 3 3 3 5 8 10 10 8 8 8 8 8 8 9 10 11 12 12 13 13 14 14 15 16 17 18 19 19 18 18 18 19 20 21 22 23 24 24 24 25 25 25 26 27 28 28 27 28 28 28 28 28 28 28 28 27 24 21
29 28 28 27 23 19 19 22 23 20 21 23 22 16 14 21 25 22 25 28 26 24 25 25 23 23 23 21 19 16 16 17 19 20 17 13 12 10 8 7 7 7 10 12 13 13 11 11 11 11 11 10 10 11 10 11 12 13 14 14 14 15 16 17 18 19 21 21 20 19 18 18 19 20 21 22 23 24 24 25 26 25 25 26 28 27 27 27 27 28 27 26 26 26 26 26 25
28 26 26 27 26 23 21 22 25 23 21 22 23 20 17 20 24 22 22 28 27 24 24 24 23 22 23 23 22 19 16 16 17 19 18 15 13 12 11 11 11 12 14 15 15 15 15 14 14 14 14 13 13 13 13 13 14 15 16 16 17 17 18 18 19 20 22 23 23 22 20 18 18 18 19 20 21 22 22 24 25 25 25 25 27 27 27 28 27 26 26 26 24 24 24 24 25
31 27 27 27 28 27 24 21 24 26 22 23 24 22 20 21 25 24 21 25 26 24 23 22 22 22 22 23 23 22 19 16 16 17 18 17 14 14 14 15 16 16 16 16 17 17 17 17 17 17 17 17 16 16 17 18 18 19 19 20 19 20 21 21 21 22 24 25 25 25 24 22 20 19 19 19 20 20 20 21 24 25 26 26 26 27 27 27 28 27 26 25 23 23 23 22 23
35 33 30 29 30 31 28 23 23 26 24 25 27 24 22 21 24 27 26 24 23 24 23 20 21 22 22 22 22 22 22 20 17 16 17 18 16 15 16 18 19 20 19 18 18 19 20 20 21 21 20 20 19 19 21 22 22 22 23 23 23 22 23 23 24 24 25 26 27 27 26 25 24 22 21 20 20 20 19 20 21 23 25 26 26 27 27 27 27 27 26 25 23 22 23 23 22
35 34 32 30 30 31 32 28 23 26 25 24 27 26 24 24 24 27 29 27 23 21 22 21 20 22 22 21 22 22 22 23 21 18 16 16 16 16 17 19 21 22 22 21 21 21 22 23 24 25 24 23 23 23 23 24 24 24 25 25 26 25 24 24 25 26 26 27 27 28 28 28 27 26 25 23 21 21 21 21 21 21 23 25 25 26 27 28 28 28 26 26 24 22 22 23 22
36 36 34 31 29 29 32 31 27 29 29 26 27 25 24 27 28 27 28 29 26 20 21 22 20 21 22 21 22 23 23 23 24 23 18 14 14 16 17 19 22 23 23 24 24 23 23 24 25 26 27 27 26 26 26 25 26 26 25 25 26 27 27 28 28 28 29 29 29 29 30 30 29 28 28 26 25 23 22 23 22 22 22 23 24 25 26 28 29 29 28 27 26 23 23 23 22
39 40 39 34 31 29 30 32 30 31 31 28 27 26 24 27 29 28 27 27 27 23 22 24 22 21 22 21 21 24 24 23 25 26 21 15 14 16 17 19 22 24 24 25 26 26 25 26 26 27 29 29 29 29 28 28 27 27 27 26 26 27 28 29 31 32 33 33 33 32 32 32 31 31 30 29 28 27 25 25 25 24 24 23 24 24 25 26 28 28 28 29 29 26 25 24 23
40 41 42 39 34 32 30 31 30 32 33 31 28 25 25 30 30 28 27 26 25 24 23 24 24 23 22 22 21 22 24 25 27 28 24 19 17 18 19 19 21 24 24 25 25 27 27 26 27 28 30 31 31 32 32 30 29 29 29 28 28 27 27 28 30 32 33 35 37 37 36 35 34 33 32 32 31 30 29 28 28 28 27 26 25 25 25 26 27 28 28 28 29 28 27 26 26
41 42 41 39 37 35 33 31 30 32 34 33 30 23 23 30 31 28 27 25 24 25 24 25 25 23 22 23 22 21 24 26 28 28 26 24 21 19 21 20 22 24 25 25 25 26 26 26 28 29 29 31 32 33 33 32 31 30 30 30 30 30 30 31 31 31 32 34 37 39 40 39 37 35 35 34 34 33 32 31 31 31 30 30 29 28 27 27 27 28 28 28 28 28 27 27 27
42 42 40 38 37 36 35 34 32 31 32 33 31 24 21 28 31 28 28 26 25 26 25 24 25 24 22 23 24 23 23 26 28 29 28 27 25 22 22 21 23 26 26 26 25 25 26 27 28 29 30 31 31 32 33 32 32 32 32 32 32 32 33 34 35 34 34 34 35 38 40 41 40 38 37 36 36 36 35 34 33 33 33 33 32 32 31 30 29 29 29 29 28 27 27 27 27
41 41 40 37 36 36 36 36 35 33 33 33 33 26 20 26 31 28 29 28 25 26 26 24 25 25 23 22 24 24 24 26 28 29 29 28 28 26 24 23 24 27 27 27 26 26 27 27 27 29 30 31 31 31 32 32 32 32 32 33 34 33 34 37 38 37 37 37 37 36 38 39 41 41 40 39 38 38 37 36 35 35 35 35 35 35 34 33 32 32 31 31 30 28 26 26 26
42 41 39 37 36 36 36 38 37 36 35 34 34 30 18 20 29 28 29 30 25 25 27 26 26 26 25 23 23 25 25 26 28 29 30 29 29 29 27 25 26 27 28 28 28 28 28 28 28 29 30 30 30 31 32 32 32 32 33 34 34 35 36 38 39 39 39 39 39 38 37 37 38 40 42 42 41 40 39 38 37 37 37 36 36 37 36 35 35 34 34 33 33 31 28 26 26
42 41 38 38 37 36 37 38 38 36 36 35 35 32 20 18 28 30 29 30 26 25 27 28 29 28 27 26 26 26 25 26 28 29 30 29 29 30 30 29 28 28 28 29 29 29 29 29 30 30 31 31 31 31 32 33 32 33 33 34 35 36 38 39 40 40 41 41 41 40 38 36 36 38 40 43 44 43 42 40 39 39 38 38 38 38 38 37 37 36 36 36 36 34 32 29 28
41 40 38 39 38 36 36 38 38 38 37 36 36 35 28 21 26 32 30 29 26 26 28 29 30 30 27 28 30 28 26 26 27 29 30 30 29 30 31 31 31 30 30 30 30 29 30 31 31 31 31 32 32 33 33 34 33 34 34 34 35 37 38 39 40 39 40 41 42 41 40 37 36 37 38 40 43 44 44 43 42 41 40 39 38 38 39 39 38 38 37 38 38 37 35 33 31
42 40 40 41 39 37 36 37 38 39 38 36 36 37 34 25 25 31 31 29 28 28 30 31 31 31 28 28 31 30 29 27 27 29 30 31 31 31 32 33 33 33 33 33 32 31 32 32 32 32 32 33 34 34 34 34 34 34 34 35 36 37 38 38 39 38 39 41 42 41 40 38 37 38 38 39 41 43 44 45 45 44 42 41 40 39 39 40 39 39 39 39 40 40 38 35 33
42 42 43 42 41 39 38 37 37 39 39 37 37 38 37 29 24 28 32 31 31 30 32 33 33 33 32 31 31 31 31 29 28 29 30 31 33 33 34 34 36 36 36 36 35 35 34 34 33 33 34 34 34 34 34 34 34 34 34 35 36 37 37 37 38 39 39 41 41 41 40 39 39 40 40 40 40 41 42 44 46 45 44 42 41 40 41 41 40 40 40 41 42 42 41 38 35
42 43 45 44 43 41 40 38 38 39 38 39 40 38 38 31 21 24 32 33 32 32 33 34 35 36 35 33 32 32 33 31 30 31 31 32 34 35 36 37 38 38 38 38 38 38 37 36 35 34 34 34 34 34 33 33 34 34 34 35 36 36 36 37 38 39 40 41 41 41 41 41 41 42 42 42 42 42 43 43 44 45 45 43 42 42 42 42 42 42 42 43 44 44 43 39 37
43 44 46 46 45 43 41 40 39 39 38 40 40 38 38 31 19 22 32 33 32 32 33 35 35 36 36 36 34 33 33 33 32 33 32 32 33 35 36 37 38 39 40 41 40 39 39 39 39 36 34 34 34 34 34 34 34 34 35 36 36 36 37 38 39 40 40 41 41 42 43 44 44 44 44 44 44 44 44 44 42 43 44 44 43 43 43 43 43 44 44 44 45 46 44 41 39
45 45 47 48 47 45 42 40 40 40 38 38 38 37 38 33 23 23 29 32 33 32 33 35 36 36 36 37 37 34 33 33 33 34 34 34 33 35 36 37 38 40 41 42 42 41 40 40 41 40 38 37 35 34 34 34 34 35 36 36 36 36 37 38 39 40 41 41 42 43 44 45 45 45 45 46 46 46 46 45 43 42 43 44 45 45 44 44 44 45 46 46 47 46 44 42 41
47 47 48 49 49 47 43 42 41 40 39 38 38 38 37 35 31 29 28 31 33 33 35 37 37 37 36 37 38 37 35 34 34 35 35 35 34 35 36 37 38 39 41 42 42 42 41 40 41 43 44 42 38 35 34 34 34 36 36 36 36 36 37 38 40 41 42 43 43 43 44 45 46 46 46 46 47 47 46 46 45 44 44 45 47 47 47 46 46 46 47 48 48 46 44 43 42
49 48 49 50 50 48 45 45 44 41 40 39 39 39 38 37 36 33 30 32 33 33 36 38 39 39 38 38 37 37 37 35 34 35 35 35 35 36 37 37 38 39 40 42 43 42 42 40 40 43 45 46 43 39 36 35 36 37 37 37 36 37 38 40 41 42 44 44 44 44 44 44 46 46 47 46 46 46 46 47 47 47 47 48 48 49 49 48 48 47 48 48 47 45 44 44 43
50 48 49 50 49 48 47 47 45 43 42 41 41 40 38 38 39 36 34 35 35 34 35 38 39 39 39 39 38 37 37 35 35 36 35 36 36 37 38 38 39 39 40 42 42 43 42 41 40 41 43 46 46 43 39 37 38 38 39 39 39 39 41 42 42 43 45 45 45 44 44 45 45 46 46 45 45 46 47 47 48 48 49 50 49 50 50 50 50 49 48 48 46 45 45 44 44
51 50 50 50 49 48 49 49 47 45 44 41 40 40 38 39 42 39 34 33 35 35 35 37 39 39 39 38 37 37 36 36 37 37 36 36 37 38 40 40 40 40 41 42 42 43 43 41 40 40 41 44 46 45 42 40 40 40 41 41 41 42 43 44 44 45 45 46 45 44 44 45 46 46 45 45 45 46 48 48 49 49 50 50 50 51 51 52 51 50 48 47 46 46 46 46 46
53 53 52 51 50 50 51 50 48 48 46 40 38 39 36 37 41 39 32 29 32 35 37 38 38 38 37 36 35 35 36 37 39 39 38 37 37 39 40 40 40 41 42 42 43 43 42 40 39 39 40 42 43 43 43 42 42 43 43 44 44 44 45 45 44 45 46 45 45 44 45 46 46 47 46 46 46 47 49 50 50 50 50 51 51 52 53 52 51 50 49 48 47 48 48 48 47
54 54 54 53 52 52 52 52 51 50 48 41 39 39 36 36 40 40 33 29 31 37 40 39 37 35 34 34 34 35 36 37 39 41 40 39 39 40 41 40 40 41 42 43 43 43 42 40 37 37 38 39 40 41 42 44 45 46 47 47 47 46 45 44 44 45 46 46 46 46 46 47 47 48 47 47 47 48 50 51 51 52 52 52 52 53 53 52 51 50 49 49 49 50 50 50 49
53 53 53 53 54 54 54 54 53 52 49 45 41 39 36 37 42 43 36 30 33 38 39 38 37 35 35 35 34 35 38 39 40 42 43 42 42 43 43 43 42 42 43 44 44 43 43 40 36 35 36 38 39 41 43 46 47 49 49 49 48 46 45 45 45 46 47 48 48 48 48 49 49 49 48 49 49 50 52 52 52 52 53 53 53 53 53 52 51 50 50 51 52 52 52 52 51
52 53 53 54 55 56 56 56 55 53 51 50 46 41 37 38 43 45 37 30 33 37 37 37 38 37 37 36 36 38 41 42 42 43 44 44 44 45 45 45 45 45 46 45 44 43 42 40 35 34 36 37 40 43 45 48 49 49 50 50 48 46 46 46 47 48 49 49 50 50 50 50 50 49 49 50 51 52 53 54 54 54 54 54 53 53 53 52 52 52 53 54 54 54 54 54 53
55 56 56 56 57 57 58 57 57 55 53 54 52 45 39 39 44 46 38 30 31 34 36 38 38 39 39 37 38 41 43 44 44 44 44 45 46 46 46 46 46 47 47 45 44 43 41 38 35 34 35 38 41 44 47 48 49 49 49 49 48 47 47 48 48 49 50 51 51 51 51 51 51 50 51 51 52 54 54 55 55 55 55 54 54 53 53 53 54 54 55 56 56 56 56 55 55
56 57 57 57 57 58 59 58 57 57 56 56 55 50 44 43 45 45 38 30 28 31 35 37 38 40 42 41 41 43 44 45 44 44 46 47 46 46 46 47 47 47 46 45 43 41 39 36 35 35 37 39 42 45 47 48 48 48 48 48 48 48 48 49 49 50 52 52 52 52 52 52 52 52 52 53 54 55 55 56 56 56 55 55 54 54 54 55 55 55 56 58 58 57 57 57 57
Wind_Direction
10 6 2 359 359 359 358 359 357 360 6 6 6 5 2 3 4 4 7 8 11 12 11 5 358 349 340 332 326 325 321 318 317 316 314 314 315 312 311 311 309 307 305 303 302 300 299 299 298 297 296 296 295 295 294 293 292 291 291 290 290 289 289 288 287 285 282 280 277 276 275 275 275 274 272 269 267 266 264 263 262 262 261 260 260 260 258 260 263 263 262 263 265 264 263 263 262
9 8 6 3 1 360 1 0 358 4 16 18 12 8 6 6 7 7 10 15 20 19 16 11 5 358 349 339 333 331 328 324 324 325 321 320 320 317 316 316 314 312 310 308 305 303 301 300 298 297 296 295 294 293 293 292 291 291 290 289 289 289 289 289 288 287 286 284 281 278 275 273 273 273 274 272 270 268 266 264 262 262 262 261 260 261 261 261 263 262 261 260 261 263 263 263 263
10 11 10 6 2 2 3 3 5 5 8 16 17 11 10 10 9 11 15 21 23 21 20 15 12 9 3 354 347 340 330 327 327 327 324 321 322 319 318 317 315 313 311 308 305 303 301 300 299 298 296 295 294 293 292 292 291 290 290 289 289 288 288 287 287 286 285 284 283 281 278 275 273 271 271 272 272 271 269 267 264 262 262 262 261 261 262 263 264 262 262 261 260 261 262 263 263
8 10 9 7 3 2 5 8 13 10 2 11 15 10 12 12 12 15 19 22 22 22 23 19 18 16 14 11 7 360 344 334 330 326 323 320 319 317 316 314 313 312 310 309 307 305 303 303 301 300 299 297 296 294 293 292 291 290 290 289 289 288 288 287 286 285 284 283 281 280 279 277 275 272 270 269 269 270 270 269 268 265 263 262 261 260 260 262 264 263 262 263 263 262 262 264 265
2 5 5 5 3 1 8 14 15 13 8 11 12 10 11 11 14 18 19 21 22 22 21 19 19 17 16 15 12 10 3 352 343 335 328 321 317 315 314 313 312 311 310 310 309 309 308 307 307 306 304 302 301 298 297 295 293 291 290 289 288 287 287 286 285 284 283 282 280 279 278 277 275 273 271 269 267 266 267 268 268 267 266 264 263 261 260 261 263 263 262 264 266 265 264 264 265
356 360 0 0 360 360 9 18 16 11 10 10 10 9 8 9 13 14 15 19 20 19 17 16 16 14 13 13 10 8 6 360 351 344 336 326 319 314 313 312 312 312 311 312 311 312 312 311 311 310 309 307 306 304 303 301 299 297 294 292 290 288 287 286 284 283 282 281 279 277 276 275 273 272 271 269 267 265 264 264 264 265 266 265 264 264 263 263 262 262 262 263 265 266 266 264 263
352 354 356 357 355 359 8 18 18 13 10 8 9 8 6 7 8 7 9 13 15 15 15 14 13 13 12 9 8 6 3 358 352 344 336 327 319 312 310 311 312 313 313 314 314 315 315 315 314 313 313 311 310 309 308 306 305 303 301 299 296 294 291 289 287 285 283 282 280 278 276 273 272 271 269 268 266 265 263 262 262 262 263 263 263 263 263 262 262 261 262 262 263 265 267 265 263
351 353 355 353 353 359 5 14 16 14 11 8 8 7 6 5 4 2 2 5 7 8 10 12 11 12 12 8 5 3 358 353 348 340 332 323 315 310 310 312 313 314 314 316 317 318 320 320 321 320 319 318 317 316 314 313 311 310 308 305 303 300 298 295 292 290 287 285 283 280 278 276 273 271 270 268 267 265 263 262 261 260 260 261 262 262 262 261 260 260 261 263 263 264 266 266 266
352 354 354 352 353 358 2 7 12 12 11 8 7 6 4 3 1 358 356 358 359 1 4 8 8 9 8 5 2 359 355 349 342 335 329 320 313 312 313 315 316 317 317 318 320 323 326 328 330 332 332 332 331 329 327 325 323 320 318 315 311 308 305 302 299 296 293 290 287 285 282 280 277 274 272 270 269 267 265 263 261 260 259 259 260 261 262 262 260 259 259 261 263 264 264 266 267
354 355 354 352 352 357 359 0 5 8 9 7 5 4 2 1 359 354 350 351 353 356 359 2 2 4 3 1 358 355 352 344 338 331 326 320 314 314 315 318 321 320 320 323 328 332 338 343 346 350 351 352 351 350 348 346 343 339 335 330 325 320 315 310 306 302 298 295 291 288 285 283 281 278 275 272 270 269 267 266 263 261 259 258 258 259 260 261 261 260 259 259 261 262 263 264 265
353 354 355 354 353 355 357 357 360 3 4 4 2 1 359 358 356 350 345 344 347 349 352 356 356 357 359 358 357 354 349 342 335 330 326 321 317 317 318 322 324 323 326 332 339 347 355 360 2 4 6 7 7 7 7 6 4 1 359 355 350 344 337 329 322 315 308 301 296 291 288 285 282 280 277 274 272 269 268 267 266 264 261 259 257 256 257 259 260 260 259 259 259 260 261 263 263
351 354 355 355 355 353 351 354 357 358 359 360 358 357 356 354 351 346 341 338 339 343 347 350 350 351 354 356 356 353 348 341 335 330 325 321 319 320 323 326 326 329 338 346 354 2 7 10 13 15 18 19 19 18 18 18 17 15 13 11 9 7 4 360 354 347 337 325 313 301 293 287 283 280 277 275 272 270 268 267 266 265 264 262 260 257 256 256 257 258 259 259 259 259 260 262 262
351 353 353 353 355 350 347 351 352 353 355 356 354 354 353 350 347 342 337 332 333 338 341 344 344 346 350 352 354 354 348 342 336 331 326 323 323 324 327 328 330 341 352 360 5 11 16 21 27 30 32 33 33 31 30 28 27 26 24 21 19 18 17 15 13 10 6 1 351 336 315 299 288 282 278 275 273 271 268 267 265 265 264 262 262 260 258 257 256 256 257 258 259 259 259 261 262
348 349 348 349 350 346 345 348 348 349 350 351 350 350 350 346 344 340 334 328 327 332 334 337 339 340 345 349 351 353 348 342 338 334 329 326 327 329 330 329 338 355 3 6 12 19 29 36 38 39 38 38 38 37 35 33 31 31 30 29 28 27 26 25 23 21 19 17 14 9 359 339 314 296 286 280 276 274 271 269 266 265 264 262 261 260 259 258 257 256 256 256 257 258 258 260 261
343 344 344 343 343 343 344 344 344 345 346 346 346 346 345 343 340 336 331 325 323 327 328 329 333 335 340 345 349 351 348 344 341 338 334 329 330 333 331 329 346 6 8 9 22 35 42 43 40 38 36 36 36 36 35 33 31 29 29 29 29 29 29 29 29 28 27 26 24 21 18 14 3 343 318 299 288 282 278 275 272 269 266 264 263 261 259 257 257 257 257 256 256 257 257 258 259
341 341 340 338 338 341 343 342 340 341 343 343 343 343 342 340 337 332 329 324 320 321 323 324 326 330 334 339 345 349 349 345 343 342 338 334 335 336 329 327 351 11 8 17 38 44 44 41 37 35 32 31 31 31 31 31 30 27 26 26 26 27 27 27 28 28 29 29 28 27 25 23 22 18 10 354 331 308 293 286 282 278 274 270 268 265 263 260 257 255 255 256 256 257 257 258 258
339 337 336 336 338 340 340 340 338 338 340 341 340 339 338 338 334 329 326 323 317 315 318 320 320 324 327 333 340 345 348 346 344 342 339 338 339 337 325 318 339 6 8 28 48 45 42 38 34 31 28 27 27 27 28 28 28 26 23 23 23 24 24 24 24 25 26 27 28 28 28 27 26 26 25 23 16 3 341 315 298 291 286 281 275 270 267 265 261 257 254 253 254 255 257 258 259
339 336 336 337 339 338 336 335 335 334 335 338 339 337 336 335 333 328 323 320 315 312 314 315 315 319 321 326 334 340 345 345 343 341 339 341 341 336 321 304 313 352 15 38 47 43 41 36 31 27 23 22 23 24 26 26 26 25 23 21 21 21 21 21 21 22 22 24 25 26 27 27 27 26 26 27 25 22 16 2 341 318 304 295 288 280 274 269 266 262 258 255 253 253 254 256 258
338 338 338 339 339 335 331 330 330 331 331 333 335 335 333 332 331 326 321 318 313 310 310 310 310 313 316 320 327 335 341 343 341 339 338 343 343 338 325 300 302 347 32 43 42 40 38 33 28 23 19 18 20 23 26 27 27 27 25 22 21 20 19 18 17 18 19 20 21 21 23 24 24 25 25 25 25 24 23 19 11 356 336 316 304 295 286 277 270 266 262 259 256 254 252 253 255
336 337 338 338 339 335 330 327 327 327 327 328 329 331 331 329 328 324 320 315 311 307 305 305 305 309 311 314 320 327 336 340 339 336 338 345 347 343 335 314 309 9 55 48 38 35 33 30 27 22 19 20 21 23 25 28 29 28 27 23 21 19 17 16 15 14 14 15 15 16 17 19 19 20 20 21 21 22 22 22 19 14 4 348 328 314 302 289 279 271 266 263 260 257 255 254 254
337 336 335 335 337 337 333 328 325 323 322 323 324 325 326 327 325 323 320 314 311 307 302 302 302 304 307 309 313 319 329 336 336 335 336 345 352 348 343 335 335 66 71 49 36 31 30 29 26 24 24 24 22 21 22 24 25 25 23 21 20 18 15 14 13 12 11 11 11 11 12 13 14 15 15 16 16 17 18 19 19 18 16 11 359 342 323 307 292 280 271 266 263 260 258 257 256
343 337 334 333 333 336 335 331 326 321 319 320 322 321 319 321 322 322 320 314 315 312 302 301 299 300 303 304 307 311 320 330 333 333 335 344 355 356 354 0 39 80 67 46 36 31 27 28 28 28 26 23 19 17 17 18 19 21 20 19 17 16 14 13 13 12 11 10 9 9 9 9 10 10 11 11 12 12 13 13 15 16 16 16 14 7 353 336 316 295 281 272 266 263 261 260 259
347 340 336 333 330 332 332 331 329 324 321 320 323 321 317 318 317 317 317 313 316 317 308 304 301 297 298 299 301 304 311 322 330 332 333 344 359 4 9 37 75 74 58 46 39 34 30 31 31 27 23 18 15 15 16 18 20 22 23 23 19 17 15 15 16 15 13 12 11 11 10 9 8 7 7 7 8 8 8 9 10 11 12 13 14 13 8 0 346 324 302 284 273 267 264 262 261
348 344 339 334 329 327 327 328 328 327 326 323 326 326 321 319 316 314 313 311 314 317 313 308 304 299 297 296 297 298 303 312 324 330 330 341 2 13 29 59 76 66 58 51 42 41 37 33 28 23 20 17 14 14 17 20 22 24 26 26 24 21 20 18 20 19 17 16 14 14 14 13 11 9 7 6 6 6 5 6 6 7 7 8 10 12 10 7 2 350 331 309 288 275 268 264 262
347 348 344 336 331 326 323 325 325 327 329 327 331 334 328 323 320 316 310 310 315 315 313 309 305 303 299 297 296 295 297 303 315 326 326 333 359 20 42 60 70 68 63 57 49 42 32 24 22 22 21 17 13 13 17 19 20 22 24 24 23 22 22 21 20 20 18 17 17 16 16 17 16 13 10 7 7 6 5 4 5 5 5 4 6 8 9 8 7 3 353 338 314 290 276 270 266
343 345 343 337 334 328 323 324 324 327 328 328 333 338 331 324 324 317 309 314 316 312 313 310 306 305 302 299 297 294 294 297 305 319 322 320 342 17 41 59 72 77 69 58 45 27 17 16 20 23 22 16 9 7 12 13 12 16 19 20 18 17 18 17 16 17 15 14 15 15 15 15 16 16 13 10 8 7 6 5 4 3 3 3 2 3 5 6 6 6 4 357 342 318 294 279 272
336 337 340 339 338 333 329 327 327 329 327 326 332 338 330 325 329 317 309 316 314 310 314 312 307 304 302 300 298 295 293 293 297 308 316 313 311 351 23 60 88 87 70 31 5 353 357 8 16 18 17 12 1 355 357 0 1 4 10 13 13 12 11 10 10 10 10 9 9 9 10 10 11 13 13 12 10 9 9 7 6 4 2 1 0 359 0 2 3 4 5 4 359 347 327 301 283
330 330 335 339 341 339 336 333 330 329 326 323 330 338 329 325 331 319 309 314 313 311 313 312 309 304 300 298 296 296 293 292 293 298 308 310 300 293 320 259 150 113 308 317 321 321 332 351 1 4 3 359 352 347 346 346 347 350 357 1 3 4 2 2 2 2 2 2 4 3 3 4 5 8 9 10 9 9 9 8 7 7 5 2 359 357 356 357 358 360 2 3 3 359 351 334 311
327 328 329 331 334 335 335 333 330 327 323 321 328 340 331 323 328 323 313 314 315 314 310 310 311 306 301 297 294 295 295 292 291 292 297 304 299 280 262 244 230 264 285 301 308 306 316 333 340 344 345 342 336 335 336 334 332 334 341 347 350 352 351 352 354 354 354 353 354 357 358 358 359 2 4 5 6 6 6 8 7 6 5 2 0 357 354 353 354 355 357 358 359 359 357 352 340
323 322 320 320 321 325 333 335 331 329 324 319 324 338 337 322 324 327 318 316 319 316 310 308 309 307 303 298 294 293 294 295 290 289 290 293 295 281 255 247 254 270 284 297 303 302 310 324 327 328 329 328 322 318 320 322 321 322 327 334 338 340 340 341 345 348 349 349 347 347 351 352 353 355 358 360 1 3 4 6 6 4 3 2 1 359 355 352 350 350 352 354 353 353 354 352 350
315 311 311 314 316 323 333 336 332 330 326 319 320 332 337 325 325 330 322 319 321 318 311 308 305 304 302 300 297 293 290 294 294 290 287 284 285 280 263 254 261 271 282 294 300 301 305 313 317 318 318 316 312 309 310 314 317 320 321 325 330 333 333 333 336 341 344 346 345 342 341 343 346 347 350 353 356 359 1 3 3 1 2 3 3 2 359 356 352 347 346 349 348 347 348 347 347
316 311 312 315 316 320 326 332 330 328 328 321 317 328 334 326 327 332 328 321 321 319 313 308 303 298 298 299 298 295 290 288 293 292 288 282 277 276 273 267 268 273 281 291 297 300 302 306 310 311 310 308 306 308 311 315 318 320 321 322 325 328 330 331 333 335 337 339 341 341 338 336 337 338 340 343 347 352 355 357 357 358 359 0 0 0 359 358 355 350 346 344 342 340 341 340 340
318 315 315 315 315 316 318 324 328 324 326 323 317 324 331 324 323 327 329 325 321 318 313 307 300 294 294 295 294 296 293 288 290 291 286 282 276 272 273 274 275 278 282 287 292 296 299 302 305 306 305 303 303 308 312 316 319 320 321 320 322 324 326 329 330 331 331 331 334 336 337 335 332 331 331 333 336 341 344 347 351 354 355 354 355 356 356 355 354 351 347 343 339 334 334 334 333
314 313 312 312 312 314 315 318 324 320 322 324 317 321 328 323 320 321 323 325 325 319 309 305 300 293 290 288 289 292 293 291 290 290 288 281 277 273 270 273 276 279 282 283 287 291 294 298 301 302 302 301 302 306 309 312 314 316 317 317 318 319 322 325 326 326 326 326 327 329 332 334 332 330 328 327 328 331 334 338 341 345 348 349 350 352 353 352 351 349 345 343 340 332 327 328 327
312 313 312 312 311 313 314 315 321 320 320 324 319 321 325 320 318 320 321 321 326 324 309 307 305 295 290 285 286 288 291 292 289 292 295 285 276 273 267 268 273 277 281 283 285 288 291 294 297 298 299 300 302 305 306 306 308 310 312 312 314 316 319 322 322 323 323 323 323 324 326 329 330 330 329 326 324 324 326 329 333 335 339 342 344 346 348 349 350 349 345 343 342 334 327 324 321
313 314 314 314 314 314 314 314 318 318 318 322 320 321 323 315 314 319 321 320 323 325 314 310 309 302 295 288 283 284 287 289 288 294 299 289 275 273 269 266 269 275 278 281 284 286 288 291 293 294 296 298 300 301 302 303 305 307 308 309 311 313 316 318 319 321 321 321 320 320 321 323 325 328 329 327 325 322 321 322 325 328 331 333 337 339 341 344 346 347 346 344 342 336 330 325 321
311 312 313 315 316 316 316 316 318 316 315 319 321 324 322 312 311 317 318 319 322 324 319 312 311 308 303 294 283 279 282 285 288 295 297 288 277 274 274 271 269 273 276 278 281 284 286 289 290 291 293 294 295 296 299 301 305 308 309 310 311 310 310 312 314 316 317 318 318 318 318 319 320 322 324 326 326 324 320 319 320 322 324 326 329 332 334 337 340 341 342 341 339 336 332 328 324
308 310 312 315 318 319 319 320 321 318 315 316 319 325 322 308 310 316 314 316 321 322 320 314 312 311 306 299 290 281 280 282 287 292 295 292 284 275 275 276 274 274 276 277 278 281 284 287 288 290 292 292 292 294 297 300 304 308 310 311 310 309 308 308 309 310 312 313 314 314 315 315 316 317 318 320 322 323 322 320 318 318 320 321 323 325 327 330 333 335 336 336 335 333 330 327 325
305 308 310 314 318 319 321 322 323 323 318 316 316 322 324 308 309 313 308 313 319 319 319 316 313 313 306 299 294 288 283 282 284 287 292 293 289 281 276 277 276 275 277 279 281 282 284 285 287 290 291 292 294 296 297 301 304 307 309 309 308 306 305 306 306 307 308 308 310 310 311 312 313 313 314 314 316 318 320 320 319 318 317 317 319 320 322 324 327 329 330 331 331 329 326 324 323
303 306 309 314 317 318 321 322 323 327 325 322 317 318 328 312 306 309 307 309 315 316 318 317 315 314 309 303 297 293 287 283 282 284 289 291 290 287 281 276 274 276 279 282 283 284 286 288 289 290 291 292 294 295 297 301 303 304 305 304 303 302 301 302 303 304 305 305 306 306 306 307 309 310 310 310 311 313 315 317 318 318 317 316 316 316 317 318 321 323 325 325 326 325 322 321 320
301 303 308 312 314 317 320 320 322 325 326 328 321 316 327 315 303 308 309 307 312 316 318 319 318 315 311 307 300 295 291 286 283 284 286 288 287 286 284 279 275 277 281 283 284 286 288 290 289 287 288 290 291 293 296 298 299 300 300 299 298 298 297 298 299 300 301 302 303 303 302 302 304 306 308 308 308 309 311 313 314 316 316 316 315 314 313 313 315 317 319 321 321 321 318 316 314
299 303 308 310 312 316 318 318 320 323 324 329 326 316 323 322 305 308 310 307 310 315 317 320 319 317 313 307 302 297 294 292 288 286 287 286 285 284 284 283 280 279 280 281 283 287 289 288 286 285 286 288 289 291 293 295 296 297 296 295 295 294 294 295 295 297 298 299 300 301 300 299 300 302 304 306 307 307 308 310 312 313 314 314 314 313 313 311 311 312 314 316 317 317 315 311 309
297 302 306 306 309 314 316 316 318 320 321 328 328 316 317 325 312 308 308 307 310 312 316 320 319 317 312 304 303 302 297 296 293 290 289 287 285 284 284 285 284 283 281 280 282 285 286 285 285 286 286 287 289 290 292 295 296 296 296 295 294 293 293 293 294 295 296 297 298 299 299 298 298 300 302 304 306 306 307 308 310 311 311 312 312 312 311 310 309 309 310 312 313 314 313 309 306
296 301 302 302 306 310 313 314 315 316 316 323 327 316 313 323 317 308 306 306 310 312 314 318 319 318 312 303 303 302 298 297 295 293 292 290 287 285 284 285 285 285 285 285 285 284 283 283 285 286 286 287 289 292 293 295 296 296 297 296 295 294 294 294 295 296 296 296 298 299 300 300 299 300 302 303 303 304 305 307 308 309 309 310 310 310 309 309 308 307 308 310 310 311 311 308 305
295 298 298 300 303 306 311 312 313 312 311 317 322 315 312 319 320 308 303 304 308 311 312 314 317 318 314 307 302 300 298 298 294 292 293 291 288 286 285 285 285 286 288 288 288 287 285 284 284 284 285 287 290 293 294 295 297 298 299 298 296 296 296 297 297 297 297 298 300 302 303 302 301 302 303 303 303 302 304 305 307 307 308 308 308 309 308 307 306 306 307 308 309 309 309 306 304
293 295 295 297 299 303 308 311 312 309 307 312 316 314 310 314 323 308 300 302 306 308 310 312 316 316 314 310 303 298 298 298 295 291 290 289 286 285 284 284 285 287 288 288 289 289 290 289 286 284 285 288 291 293 295 297 298 300 299 297 296 297 298 298 298 299 300 301 303 304 304 303 302 302 303 303 303 303 304 305 306 306 306 306 307 308 307 306 305 304 304 306 307 308 307 304 303
291 291 292 294 296 300 305 309 310 306 305 307 308 310 307 307 323 313 299 301 304 306 309 310 313 315 313 311 305 299 295 295 296 293 290 288 286 285 284 284 285 286 287 287 288 290 292 292 291 288 287 289 291 293 296 298 300 300 298 297 297 298 298 299 300 301 303 303 303 303 302 302 302 302 303 303 303 303 304 305 305 305 305 305 306 307 307 306 304 303 303 303 304 305 304 302 302
289 289 290 292 293 296 301 305 305 303 303 302 302 306 303 302 319 320 305 303 305 307 309 309 311 313 312 311 309 303 296 293 294 292 290 289 287 285 284 284 284 285 286 287 289 291 292 293 294 292 290 290 293 295 297 300 301 298 296 296 297 298 299 300 301 302 302 301 300 300 299 300 301 302 302 302 302 303 304 305 305 305 305 305 306 306 306 305 304 303 303 303 303 303 302 301 301
289 288 288 290 291 295 299 301 301 301 302 301 301 304 303 303 314 319 310 305 306 309 310 309 310 311 310 310 309 305 298 295 292 291 289 289 288 286 284 283 283 284 286 287 289 291 293 294 295 295 294 294 295 297 300 301 300 297 296 297 299 300 300 301 301 301 300 299 298 298 299 300 301 301 301 301 302 303 304 305 306 306 305 306 306 306 306 305 304 303 303 303 303 302 301 301 301
289 288 286 286 289 294 296 297 298 300 301 300 300 302 304 304 308 314 312 305 305 307 307 307 308 310 309 308 307 302 298 296 292 289 289 289 288 287 285 285 284 285 287 288 290 292 295 296 296 296 297 297 298 299 302 302 299 298 298 300 300 300 300 299 299 298 298 297 297 298 299 299 300 300 300 300 301 303 304 305 306 306 306 306 306 305 305 305 304 303 302 302 302 301 300 301 301
288 287 286 285 288 292 292 293 295 297 297 298 298 301 304 303 302 308 312 307 304 304 304 305 306 307 307 306 305 300 296 294 291 289 289 288 288 288 287 287 287 288 289 289 291 293 295 296 297 297 297 297 299 301 304 303 300 299 299 299 299 299 298 298 297 297 297 297 297 297 298 299 300 300 300 300 301 303 304 305 306 306 306 306 305 304 304 304 304 303 302 302 301 300 300 300 300
285 286 286 285 286 287 288 289 292 293 293 295 298 299 302 302 299 304 311 306 303 303 301 302 304 305 305 304 302 299 295 293 290 289 289 288 289 289 289 291 291 292 291 292 292 293 294 296 298 297 296 296 299 302 305 304 300 298 297 297 297 297 297 296 296 296 296 295 296 297 297 298 300 301 301 301 303 304 304 305 306 306 305 305 304 304 303 303 303 302 302 302 300 300 300 300 300
283 285 286 285 284 284 285 286 288 289 291 293 297 297 298 299 297 300 308 306 302 302 300 302 304 304 303 300 297 295 293 292 291 290 289 289 289 288 289 290 291 291 292 292 292 293 295 297 299 299 297 297 299 301 303 301 297 295 294 294 294 295 295 295 296 295 295 295 296 296 297 299 301 302 302 303 304 304 305 305 305 305 304 304 303 303 303 303 302 302 302 301 300 300 300 300 299
282 284 285 283 282 281 282 284 284 286 289 292 295 295 295 297 295 297 306 309 303 300 300 302 302 300 296 294 293 293 291 290 290 290 290 290 290 290 289 289 290 292 293 293 296 298 300 302 304 302 298 297 298 298 297 294 292 292 292 291 293 294 296 296 296 296 297 297 297 297 299 301 303 303 303 303 304 304 304 304 304 304 303 303 303 303 303 303 302 301 301 301 301 302 301 300 300
282 283 282 280 281 280 280 281 282 285 288 290 292 293 294 295 294 296 305 310 303 298 299 299 298 296 294 293 291 289 287 286 287 289 291 292 292 292 292 293 295 297 297 298 301 303 305 307 307 303 297 295 294 292 289 288 288 290 291 292 294 295 296 297 297 298 299 299 299 299 301 303 303 303 303 303 303 303 303 303 303 303 303 303 304 304 303 303 302 301 300 301 302 303 302 301 300
279 279 280 280 281 280 278 279 280 283 286 287 287 289 292 295 294 296 305 309 300 297 297 296 295 294 293 291 289 286 285 285 286 289 290 291 292 293 295 297 299 300 301 302 303 305 308 310 308 301 294 290 288 286 285 285 287 290 292 293 294 295 296 296 298 298 299 299 300 300 301 302 303 302 302 302 302 302 303 303 303 303 304 304 304 304 304 302 301 300 300 301 303 303 302 301 300
274 277 278 278 279 279 277 277 278 281 283 284 285 286 291 296 295 298 306 310 300 296 295 294 294 292 290 288 286 284 284 285 286 288 290 291 292 294 297 298 300 301 302 303 304 306 309 311 308 299 291 286 283 283 283 285 287 289 291 292 293 294 295 296 297 298 299 299 300 300 300 301 301 301 301 301 302 302 302 303 303 303 304 304 304 304 303 302 301 300 301 302 303 303 302 301 301
273 275 274 275 277 277 276 275 277 279 280 281 282 283 288 294 296 299 306 305 297 293 292 292 290 288 287 286 284 283 283 284 285 288 290 291 293 295 297 298 299 301 302 303 304 306 308 309 305 296 288 283 281 281 283 285 287 289 290 291 291 292 293 295 296 297 298 298 299 299 299 299 299 299 300 301 301 302 302 303 303 303 304 304 304 303 302 301 300 301 301 302 302 302 301 301 301